Miscellaneous Local Product
Issued by NWS Hastings, NE

Home | Current Version | Previous Version | Graphics & Text | Print | Product List | Glossary On
Versions: 1 2 3 4 5 6 7 8 9 10 11 12 13 14 15 16 17 18 19 20 21 22 23 24 25 26 27 28 29 30 31 32 33 34 35 36 37 38 39 40 41 42 43 44 45 46 47 48 49 50
029
AXUS43 KGID 171002
MISGRI

GID CWA HOURLY WEATHER ROUNDUP
NATIONAL WEATHER SERVICE HASTINGS NE
500 AM CDT THU AUG 17 2017

NOTE: "FAIR" INDICATES FEW OR NO CLOUDS BELOW 12,000 FEET WITH NO
SIGNIFICANT WEATHER AND/OR OBSTRUCTIONS TO VISIBILITY.

...SOUTH CENTRAL NEBRASKA...

CITY           SKY/WX    TMP DP  RH WIND       PRES   REMARKS
GRAND ISLAND   CLEAR     57  57 100 W8        29.96R
HASTINGS       CLEAR     56  54  93 W6        29.99R
KEARNEY        CLEAR     57  54  89 W5        30.00R
ORD            CLEAR     56  51  84 W7        29.95R
YORK           CLEAR     59  59 100 W7        29.94R
AURORA         CLEAR     58  58 100 W5        29.96R
LEXINGTON      CLEAR     54  52  92 CALM      30.01R
HOLDREGE       CLEAR     55  52  89 W6        30.00R
HEBRON         CLEAR     61  59  94 CALM      29.95R

...NEBRASKA PANHANDLE...

CITY           SKY/WX    TMP DP  RH WIND       PRES   REMARKS
CHADRON        CLEAR     51  48  89 S3        29.99F
ALLIANCE       CLEAR     49  46  90 W6        30.05S
SCOTTSBLUFF    CLEAR     54  49  83 E7        30.06S
SIDNEY         CLEAR     53  51  93 SW8       30.10S

...WESTERN AND NORTH CENTRAL NEBRASKA...

CITY           SKY/WX    TMP DP  RH WIND       PRES   REMARKS
VALENTINE      CLEAR     53  48  83 W8        29.98S
AINSWORTH      CLEAR     51  50  94 W7        29.97S
ONEILL         CLEAR     55  54  96 W6        29.92R
BROKEN BOW     CLEAR     56  51  84 NW3       29.98S
IMPERIAL       CLEAR     53  51  93 CALM      30.06F
NORTH PLATTE   CLEAR     51  50  96 NW5       30.04S
MCCOOK         CLEAR     58  57  97 W9        30.03S

...EASTERN NEBRASKA...

CITY           SKY/WX    TMP DP  RH WIND       PRES   REMARKS
NORFOLK        CLEAR     59  56  89 W10       29.87R
SO SIOUX CITY  CLOUDY    67  64  90 W9        29.79R
TEKAMAH        CLOUDY    66  61  84 W8        29.83R
COLUMBUS       CLEAR     61  58  90 W9        29.91R
ALBION         CLEAR     58  56  93 CALM      29.92R
OMAHA EPPLEY   CLOUDY    67  60  78 W9        29.85R
OFFUTT AFB     CLEAR     63  60  88 W9        29.85R
MILLARD        CLEAR     65  62  89 W8        29.86R
LINCOLN        CLEAR     64  60  87 W8        29.91R
NEBRASKA CITY  CLEAR     62  62 100 W8        29.88R
BEATRICE       CLEAR     62  60  95 W6        29.92R
FALLS CITY     CLEAR     64  61  90 W10       29.88R

...NORTHERN KANSAS...

CITY           SKY/WX    TMP DP  RH WIND       PRES   REMARKS
GOODLAND       CLEAR     54  52  93 SW6       30.10R
HILL CITY      CLEAR     59  58  96 W8        30.04R
NORTON         SUNNY     55  52  88 SW5       30.03
PHILLIPSBURG   CLEAR     55  55 100 W6        30.02R
SMITH CENTER   CLEAR     54  54 100 SW6       30.01R FOG
HAYS           CLEAR     59  58  96 NW7       30.04R
RUSSELL        CLEAR     61  59  93 W8        30.01R
CONCORDIA      CLEAR     61  61 100 W7        29.96R
SALINA         CLEAR     66  62  87 CALM      29.98R
TOPEKA         CLOUDY    67  67 100 W6        29.91R



USA.gov is the U.S. government's official web portal to all federal, state and local government web resources and services.